Stations météo

réclame
Mon MeteoGroup
Ponferrada, Espagne (8053): Température de l'air & dewpoint: 16.06.2018 09:00:00 - 22.06.2018 09:00:00 (CEST)Ponferrada, Espagne (8053): Vitesse du vent: 16.06.2018 09:00:00 - 22.06.2018 09:00:00 (CEST)Ponferrada, Espagne (8053): Direction du vent: 16.06.2018 09:00:00 - 22.06.2018 09:00:00 (CEST)Ponferrada, Espagne (8053): reduced air pressure: 16.06.2018 09:00:00 - 22.06.2018 09:00:00 (CEST)Ponferrada, Espagne (8053): visibility: 16.06.2018 09:00:00 - 22.06.2018 09:00:00 (CEST)Ponferrada, Espagne (8053): Quantités de précipitations: 16.06.2018 09:00:00 - 22.06.2018 09:00:00 (CEST)
Date & Time tt [°C] td [°C] ff [km/h] ff [knt] dd ppp [hPa] vv [km] rr [mm]
22.06.2018 09:00:00 18,7 16,7 4 2 WSW 1019,3 14 0,0
22.06.2018 08:00:00 17,4 16,6 4 2 SSE - 15 -
22.06.2018 07:00:00 - - - - - - - -
22.06.2018 06:00:00 - - - - - - - -
22.06.2018 05:00:00 - - - - - - - -
22.06.2018 04:00:00 - - - - - - - -
22.06.2018 03:00:00 - - - - - - - -
22.06.2018 02:00:00 - - - - - - - -
22.06.2018 01:00:00 19,2 17,9 9 5 W 1020,3 13 0,0
22.06.2018 00:00:00 19,4 17,7 5 3 SSE 1019,3 - 1,0
21.06.2018 23:00:00 19,6 17,6 5 3 NE 1019,1 13 -
21.06.2018 22:00:00 19,7 17,8 4 2 WNW 1018,5 10 0,2
21.06.2018 21:00:00 19,9 17,9 8 4 NNE 1018,7 13 4,0
21.06.2018 20:00:00 20,7 17,7 13 7 E 1018,1 9 -
21.06.2018 19:00:00 26,7 18,6 9 5 W 1015,6 10 0,0
21.06.2018 18:00:00 27,6 17,2 11 6 W 1015,2 16 0,0
21.06.2018 17:00:00 29,9 16,7 13 7 W 1014,4 18 -
21.06.2018 16:00:00 32,6 16,0 9 5 WSW 1013,7 19 0,0
21.06.2018 15:00:00 30,9 15,7 9 5 WNW 1014,7 19 0,0
21.06.2018 14:00:00 29,4 16,2 8 4 W 1015,6 20 -
21.06.2018 13:00:00 27,5 15,8 5 3 WNW 1016,6 18 0,0
21.06.2018 12:00:00 25,8 15,8 5 3 W 1017,3 17 0,0
21.06.2018 11:00:00 23,8 16,8 5 3 W 1017,9 17 -
21.06.2018 10:00:00 21,3 16,7 2 1 W 1018,7 15 0,0
21.06.2018 09:00:00 19,6 16,1 5 3 WNW 1018,3 14 0,0
21.06.2018 08:00:00 18,0 15,6 4 2 NNW 1018,2 20 -
21.06.2018 07:00:00 17,3 15,6 5 3 SE 1018,5 11 0,0
21.06.2018 06:00:00 18,0 16,0 4 2 S 1018,4 11 0,0
21.06.2018 05:00:00 19,3 15,4 4 2 NNW 1018,3 17 -
21.06.2018 04:00:00 19,4 15,7 2 1 ESE 1018,5 16 0,0
21.06.2018 03:00:00 19,4 15,9 2 1 N 1018,8 16 0,0
21.06.2018 02:00:00 19,9 15,3 8 4 WNW 1019,1 17 -
21.06.2018 01:00:00 20,6 15,2 8 4 SSE 1019,2 18 0,0
21.06.2018 00:00:00 21,3 15,8 2 1 NE 1018,9 17 0,0
20.06.2018 23:00:00 22,2 15,5 2 1 ENE 1018,4 8 -
20.06.2018 22:00:00 23,0 16,1 4 2 NW 1017,4 17 0,0
20.06.2018 21:00:00 25,1 13,9 9 5 ESE 1016,4 16 0,0
20.06.2018 20:00:00 25,4 14,2 5 3 N 1016,4 18 -
20.06.2018 19:00:00 27,5 14,2 16 9 W 1015,4 11 0,0
20.06.2018 18:00:00 30,8 15,2 11 6 E 1013,2 17 0,0
20.06.2018 17:00:00 29,8 15,9 8 4 SE 1013,2 17 -
20.06.2018 16:00:00 30,9 14,9 5 3 WSW 1013,3 19 0,0
20.06.2018 15:00:00 31,7 14,4 5 3 NE 1013,7 19 0,0
20.06.2018 14:00:00 29,9 15,6 8 4 W 1014,5 20 -
20.06.2018 13:00:00 27,8 15,5 5 3 NW 1015,6 18 0,0
20.06.2018 12:00:00 26,0 15,4 5 3 W 1016,3 18 0,0
20.06.2018 11:00:00 23,8 14,5 4 2 NW 1017,2 20 -
20.06.2018 10:00:00 21,6 14,0 4 2 W 1018,0 16 0,0
20.06.2018 09:00:00 20,0 13,7 2 1 N 1018,3 18 0,0
20.06.2018 08:00:00 17,7 12,8 0 0 N 1018,6 20 -
20.06.2018 07:00:00 16,4 12,4 2 1 E 1018,4 17 0,0
20.06.2018 06:00:00 17,3 12,6 2 1 ENE 1017,9 18 0,0
20.06.2018 05:00:00 17,9 12,8 2 1 SE 1017,7 18 -
20.06.2018 04:00:00 19,3 13,0 0 0 N 1017,3 19 0,0
20.06.2018 03:00:00 20,8 12,2 4 2 S 1017,3 20 0,0
20.06.2018 02:00:00 22,4 12,3 4 2 S 1016,9 20 -
20.06.2018 01:00:00 23,1 13,3 8 4 ESE 1016,8 20 0,0
20.06.2018 00:00:00 24,1 15,8 5 3 SE 1016,2 19 0,0
19.06.2018 23:00:00 25,7 16,5 4 2 S 1015,3 19 -
19.06.2018 22:00:00 27,8 12,6 8 4 ESE 1014,2 19 0,0
19.06.2018 21:00:00 30,0 12,0 13 7 E 1013,3 19 0,0
19.06.2018 20:00:00 32,3 12,0 9 5 ENE 1012,9 20 -
19.06.2018 19:00:00 33,1 11,0 5 3 WNW 1012,8 20 0,0
19.06.2018 18:00:00 32,8 10,2 8 4 WNW 1013,3 19 0,0
19.06.2018 17:00:00 32,4 10,4 5 3 NNE 1013,7 20 -
19.06.2018 16:00:00 31,5 10,2 9 5 ENE 1014,4 18 0,0
19.06.2018 15:00:00 30,5 8,8 8 4 E 1015,1 19 0,0
19.06.2018 14:00:00 29,8 8,2 13 7 SE 1016,0 20 -
19.06.2018 13:00:00 27,3 14,3 8 4 W 1017,0 17 0,0
19.06.2018 12:00:00 24,3 14,4 5 3 W 1018,3 18 0,0
19.06.2018 11:00:00 21,7 13,6 4 2 WNW 1019,6 20 -
19.06.2018 10:00:00 19,3 12,8 4 2 N 1020,7 15 0,0
19.06.2018 09:00:00 17,0 12,1 2 1 WNW 1021,4 11 0,0
19.06.2018 08:00:00 15,5 11,5 4 2 SE 1022,0 20 -
19.06.2018 07:00:00 14,9 11,3 2 1 WNW 1022,1 15 0,0
19.06.2018 06:00:00 14,9 11,1 2 1 ESE 1021,8 16 0,0
19.06.2018 05:00:00 15,4 10,8 2 1 E 1021,8 16 -
19.06.2018 04:00:00 16,5 10,6 2 1 E 1021,8 16 0,0
19.06.2018 03:00:00 17,5 11,1 2 1 E 1021,5 16 0,0
19.06.2018 02:00:00 18,6 12,3 2 1 ESE 1021,3 16 -
19.06.2018 01:00:00 20,4 11,1 2 1 E 1021,1 17 0,0
19.06.2018 00:00:00 22,4 10,5 4 2 E 1020,9 18 0,0
18.06.2018 23:00:00 25,2 9,9 8 4 E 1019,9 18 -
18.06.2018 22:00:00 27,9 9,2 13 7 E 1018,7 18 0,0
18.06.2018 21:00:00 30,3 5,5 13 7 E 1017,9 17 0,0
18.06.2018 20:00:00 32,1 4,0 11 6 E 1017,3 18 -
18.06.2018 19:00:00 32,8 6,9 13 7 E 1017,1 19 0,0
18.06.2018 18:00:00 33,0 12,6 5 3 N 1017,2 19 0,0
18.06.2018 17:00:00 32,9 10,9 5 3 N 1017,9 19 -
18.06.2018 16:00:00 31,5 11,3 8 4 NW 1018,8 17 0,0
18.06.2018 15:00:00 29,6 11,6 5 3 W 1019,9 18 0,0
18.06.2018 14:00:00 27,3 11,7 4 2 WSW 1021,1 20 -
18.06.2018 13:00:00 24,8 11,4 5 3 W 1022,3 19 0,0
18.06.2018 12:00:00 22,7 11,4 8 4 W 1023,4 19 0,0
18.06.2018 11:00:00 20,1 11,6 5 3 WNW 1024,4 20 -
18.06.2018 10:00:00 18,0 11,1 5 3 WNW 1025,3 20 0,0
18.06.2018 09:00:00 16,6 11,3 4 2 W 1025,5 20 0,0
18.06.2018 08:00:00 14,8 11,6 2 1 N 1025,8 20 -
18.06.2018 07:00:00 13,7 11,0 2 1 NW 1025,9 20 0,0
18.06.2018 06:00:00 14,3 11,3 2 1 WNW 1025,5 20 0,0
18.06.2018 05:00:00 14,6 11,6 2 1 ENE 1025,5 20 -
18.06.2018 04:00:00 15,9 11,7 2 1 ESE 1025,1 20 0,0
18.06.2018 03:00:00 17,4 12,3 2 1 N 1024,5 20 0,0
18.06.2018 02:00:00 18,5 12,3 4 2 S 1024,4 19 -
18.06.2018 01:00:00 19,3 13,0 4 2 E 1024,0 20 0,0
18.06.2018 00:00:00 20,6 13,5 2 1 ENE 1023,6 20 0,0
17.06.2018 23:00:00 23,5 13,4 8 4 W 1022,5 20 -
17.06.2018 22:00:00 25,6 13,4 4 2 NNW 1021,1 20 0,0
17.06.2018 21:00:00 27,9 13,8 9 5 WNW 1020,0 20 0,0
17.06.2018 20:00:00 29,3 12,7 13 7 WNW 1019,3 20 -
17.06.2018 19:00:00 30,2 11,2 11 6 WNW 1018,9 20 0,0
17.06.2018 18:00:00 30,4 10,9 9 5 WNW 1018,9 19 0,0
17.06.2018 17:00:00 29,9 8,9 5 3 WSW 1019,2 20 -
17.06.2018 16:00:00 28,5 8,7 8 4 W 1019,8 20 0,0
17.06.2018 15:00:00 26,3 9,2 9 5 W 1020,8 20 0,0
17.06.2018 14:00:00 23,9 13,7 8 4 W 1021,6 20 -
17.06.2018 13:00:00 21,2 14,6 4 2 SSE 1022,5 20 0,0
17.06.2018 12:00:00 18,4 13,7 8 4 WNW 1023,6 20 0,0
17.06.2018 11:00:00 16,6 13,3 4 2 W 1024,3 18 -
17.06.2018 10:00:00 15,7 13,4 4 2 SE 1024,1 15 0,0
17.06.2018 09:00:00 14,8 12,5 4 2 WNW 1024,1 19 0,0
17.06.2018 08:00:00 14,1 11,8 4 2 WNW 1023,7 20 -
17.06.2018 07:00:00 14,1 12,1 4 2 SSW 1023,2 18 0,0
17.06.2018 06:00:00 14,5 12,0 2 1 SW 1022,5 19 0,0
17.06.2018 05:00:00 15,1 12,4 2 1 WSW 1022,3 19 -
17.06.2018 04:00:00 15,9 12,6 4 2 SW 1021,8 20 0,0
17.06.2018 03:00:00 16,8 12,9 4 2 WSW 1021,0 20 0,0
17.06.2018 02:00:00 17,3 13,4 4 2 SE 1020,8 20 -
17.06.2018 01:00:00 18,6 13,7 4 2 S 1020,3 20 0,0
17.06.2018 00:00:00 19,4 13,8 4 2 SW 1020,1 20 0,0
16.06.2018 23:00:00 20,3 14,0 5 3 W 1019,3 20 -
16.06.2018 22:00:00 22,0 14,4 8 4 W 1017,7 20 0,0
16.06.2018 21:00:00 24,6 15,0 9 5 W 1016,1 20 0,0
16.06.2018 20:00:00 27,0 14,4 15 8 WNW 1015,0 20 -
16.06.2018 19:00:00 28,3 11,4 15 8 WNW 1014,4 19 0,0
16.06.2018 18:00:00 28,5 8,7 11 6 WNW 1014,6 20 0,0
16.06.2018 17:00:00 28,4 8,6 9 5 NW 1014,8 20 -
16.06.2018 16:00:00 27,5 6,3 9 5 WNW 1015,6 20 0,0
16.06.2018 15:00:00 25,9 9,3 8 4 WNW 1016,2 20 0,0
16.06.2018 14:00:00 23,6 11,3 5 3 WNW 1017,1 20 -
16.06.2018 13:00:00 20,8 11,7 4 2 S 1018,5 3,7 0,0
16.06.2018 12:00:00 18,3 12,9 5 3 W 1019,3 20 0,0
16.06.2018 11:00:00 16,0 12,5 4 2 W 1020,0 18 -
16.06.2018 10:00:00 14,5 11,8 4 2 W 1020,2 20 0,0
16.06.2018 09:00:00 13,8 11,3 2 1 WSW 1020,3 19 0,0

tt = Température de l'air
td = dewpoint
ff = Vitesse du vent
dd = Direction du vent
ppp = reduced air pressure
vv = visibility
rr = Quantités de précipitations

stations d'obs. à proximité